| time (UTC) | temp F | wind direction | speed MPH | gust MPH | rain 1hr in | rain 24hr in | rain mn in | humidity % | barometer mb |
| 20260508073003 | 59 | 180 | 1.0 | 6.0 | 0.00 | 0.00 | 0.00 | 76 | 1010.4 |
| 20260508071600 | 59 | 221 | 1.0 | 6.0 | 0.00 | 0.00 | 0.00 | 76 | 1010.2 |
| 20260508070057 | 58 | 195 | 2.0 | 7.0 | 0.00 | 0.00 | 0.00 | 77 | 1010.2 |
| 20260508064554 | 57 | 182 | 2.0 | 6.0 | 0.00 | 0.00 | 0.00 | 78 | 1010.2 |
| 20260508063101 | 57 | 189 | 2.0 | 5.0 | 0.00 | 0.00 | 0.00 | 79 | 1010.1 |
| 20260508061551 | 57 | 186 | 3.0 | 6.0 | 0.00 | 0.00 | 0.00 | 79 | 1010.1 |
| 20260508060043 | 57 | 234 | 2.0 | 5.0 | 0.00 | 0.00 | 0.00 | 79 | 1009.9 |
| 20260508054543 | 57 | 208 | 1.0 | 6.0 | 0.00 | 0.00 | 0.00 | 78 | 1010.0 |
| 20260508053041 | 57 | 205 | 2.0 | 5.0 | 0.00 | 0.00 | 0.00 | 78 | 1009.7 |
| 20260508051537 | 57 | 235 | 0.0 | 3.0 | 0.00 | 0.00 | 0.00 | 78 | 1009.3 |
| 20260508050037 | 57 | 242 | 0.0 | 5.0 | 0.00 | 0.00 | 0.00 | 78 | 1009.1 |
| 20260508044537 | 57 | 240 | 2.0 | 8.0 | 0.00 | 0.00 | 0.00 | 77 | 1009.1 |
| 20260508043035 | 57 | 202 | 3.0 | 7.0 | 0.00 | 0.00 | 0.00 | 77 | 1009.0 |
| 20260508041535 | 57 | 194 | 2.0 | 6.0 | 0.00 | 0.00 | 0.00 | 77 | 1008.8 |
| 20260508040038 | 57 | 203 | 3.0 | 7.0 | 0.00 | 0.00 | 0.00 | 77 | 1008.9 |
| 20260508034532 | 57 | 199 | 2.0 | 7.0 | 0.00 | 0.00 | 0.00 | 77 | 1009.0 |
| 20260508033030 | 57 | 177 | 4.0 | 8.0 | 0.00 | 0.00 | 0.00 | 76 | 1008.9 |
| 20260508031528 | 58 | 178 | 3.0 | 8.0 | 0.00 | 0.00 | 0.00 | 76 | 1009.0 |
| 20260508030027 | 58 | 181 | 2.0 | 9.0 | 0.00 | 0.00 | 0.00 | 76 | 1009.3 |
| 20260508024541 | 58 | 195 | 4.0 | 8.0 | 0.00 | 0.00 | 0.00 | 75 | 1009.4 |
| 20260508023027 | 58 | 221 | 4.0 | 8.0 | 0.00 | 0.00 | 0.00 | 75 | 1009.3 |
| 20260508021521 | 58 | 212 | 4.0 | 10.0 | 0.00 | 0.00 | 0.00 | 75 | 1009.3 |
| 20260508020019 | 58 | 190 | 3.0 | 8.0 | 0.00 | 0.00 | 0.00 | 74 | 1009.3 |
| 20260508014520 | 59 | 196 | 3.0 | 8.0 | 0.00 | 0.00 | 0.00 | 74 | 1009.3 |
| 20260508013016 | 59 | 208 | 4.0 | 7.0 | 0.00 | 0.00 | 0.00 | 74 | 1009.6 |
| 20260508011515 | 59 | 192 | 4.0 | 7.0 | 0.00 | 0.00 | 0.00 | 74 | 1009.7 |
| 20260508010015 | 59 | 178 | 3.0 | 9.0 | 0.00 | 0.00 | 0.00 | 74 | 1009.6 |
| 20260508004511 | 59 | 192 | 4.0 | 7.0 | 0.00 | 0.00 | 0.00 | 74 | 1009.9 |
| 20260508003013 | 59 | 215 | 3.0 | 9.0 | 0.00 | 0.00 | 0.00 | 74 | 1009.9 |
| 20260508001508 | 60 | 204 | 3.0 | 9.0 | 0.00 | 0.00 | 0.00 | 73 | 1009.7 |
| 20260508000007 | 60 | 200 | 3.0 | 6.0 | 0.00 | 0.00 | 0.00 | 73 | 1009.8 |
| 20260507234507 | 60 | 203 | 3.0 | 7.0 | 0.00 | 0.00 | 0.00 | 72 | 1010.0 |
| 20260507233011 | 60 | 184 | 2.0 | 6.0 | 0.00 | 0.00 | 0.00 | 71 | 1009.8 |
| 20260507231503 | 60 | 194 | 3.0 | 7.0 | 0.00 | 0.00 | 0.00 | 71 | 1009.9 |
| 20260507230003 | 60 | 183 | 4.0 | 7.0 | 0.00 | 0.00 | 0.00 | 71 | 1010.1 |
| 20260507224610 | 60 | 180 | 3.0 | 7.0 | 0.00 | 0.00 | 0.00 | 70 | 1010.2 |
| 20260507223058 | 60 | 214 | 2.0 | 6.0 | 0.00 | 0.00 | 0.00 | 70 | 1010.5 |
| 20260507221555 | 60 | 182 | 3.0 | 7.0 | 0.00 | 0.00 | 0.00 | 69 | 1010.5 |
| 20260507220054 | 61 | 203 | 4.0 | 8.0 | 0.00 | 0.00 | 0.00 | 67 | 1010.5 |
| 20260507214604 | 61 | 232 | 2.0 | 5.0 | 0.00 | 0.00 | 0.00 | 65 | 1010.4 |
| 20260507213056 | 61 | 252 | 3.0 | 7.0 | 0.00 | 0.00 | 0.00 | 65 | 1010.5 |
| 20260507211555 | 61 | 269 | 2.0 | 4.0 | 0.00 | 0.00 | 0.00 | 64 | 1010.4 |
| 20260507210058 | 61 | 268 | 3.0 | 6.0 | 0.00 | 0.00 | 0.00 | 63 | 1010.1 |
| 20260507204548 | 61 | 257 | 3.0 | 7.0 | 0.00 | 0.00 | 0.00 | 62 | 1009.9 |
| 20260507203103 | 62 | 277 | 4.0 | 8.0 | 0.00 | 0.00 | 0.00 | 61 | 1009.7 |
| 20260507201556 | 62 | 278 | 4.0 | 8.0 | 0.00 | 0.00 | 0.00 | 61 | 1009.8 |
| 20260507194546 | 62 | 269 | 5.0 | 11.0 | 0.00 | 0.00 | 0.00 | 62 | 1009.7 |
| 20260507193049 | 63 | 261 | 6.0 | 13.0 | 0.00 | 0.00 | 0.00 | 61 | 1009.5 |
| 20260507191545 | 64 | 244 | 6.0 | 12.0 | 0.00 | 0.00 | 0.00 | 60 | 1009.5 |
| 20260507190048 | 65 | 251 | 7.0 | 13.0 | 0.00 | 0.00 | 0.00 | 58 | 1009.1 |
| 20260507184548 | 66 | 238 | 7.0 | 13.0 | 0.00 | 0.00 | 0.00 | 55 | 1008.9 |
| 20260507183047 | 66 | 246 | 8.0 | 15.0 | 0.00 | 0.00 | 0.00 | 52 | 1008.8 |
| 20260507181543 | 67 | 256 | 10.0 | 18.0 | 0.00 | 0.00 | 0.00 | 52 | 1008.6 |
| 20260507180047 | 68 | 242 | 9.0 | 16.0 | 0.00 | 0.00 | 0.00 | 50 | 1008.4 |
| 20260507174545 | 69 | 204 | 8.0 | 17.0 | 0.00 | 0.00 | 0.00 | 49 | 1008.3 |
| 20260507173042 | 69 | 246 | 10.0 | 18.0 | 0.00 | 0.00 | 0.00 | 47 | 1008.2 |
| 20260507171543 | 71 | 246 | 8.0 | 17.0 | 0.00 | 0.00 | 0.00 | 46 | 1008.1 |
| 20260507170040 | 71 | 253 | 7.0 | 16.0 | 0.00 | 0.00 | 0.00 | 44 | 1007.9 |
| 20260507164555 | 71 | 255 | 8.0 | 14.0 | 0.00 | 0.00 | 0.00 | 43 | 1007.8 |
| 20260507163040 | 72 | 259 | 8.0 | 14.0 | 0.00 | 0.00 | 0.00 | 41 | 1007.8 |
| 20260507161540 | 72 | 240 | 8.0 | 15.0 | 0.00 | 0.00 | 0.00 | 41 | 1007.6 |
| 20260507160040 | 72 | 207 | 10.0 | 17.0 | 0.00 | 0.00 | 0.00 | 41 | 1007.6 |
| 20260507154545 | 73 | 267 | 7.0 | 16.0 | 0.00 | 0.00 | 0.00 | 36 | 1007.6 |
| 20260507153038 | 74 | 215 | 7.0 | 15.0 | 0.00 | 0.00 | 0.00 | 35 | 1007.6 |
| 20260507151539 | 74 | 245 | 5.0 | 15.0 | 0.00 | 0.00 | 0.00 | 37 | 1007.5 |
| 20260507150036 | 74 | 224 | 5.0 | 12.0 | 0.00 | 0.00 | 0.00 | 38 | 1007.6 |
| 20260507144535 | 73 | 280 | 7.0 | 17.0 | 0.00 | 0.00 | 0.00 | 39 | 1007.9 |
| 20260507143036 | 73 | 228 | 9.0 | 18.0 | 0.00 | 0.00 | 0.00 | 41 | 1008.0 |
| 20260507141531 | 72 | 265 | 8.0 | 14.0 | 0.00 | 0.00 | 0.00 | 45 | 1008.2 |
| 20260507140032 | 73 | 250 | 7.0 | 15.0 | 0.00 | 0.00 | 0.00 | 46 | 1008.3 |
| 20260507134531 | 72 | 205 | 7.0 | 15.0 | 0.00 | 0.00 | 0.00 | 46 | 1008.3 |
| 20260507133028 | 72 | 248 | 7.0 | 16.0 | 0.00 | 0.00 | 0.00 | 46 | 1008.5 |
| 20260507131531 | 71 | 255 | 8.0 | 17.0 | 0.00 | 0.00 | 0.00 | 48 | 1008.6 |
| 20260507130026 | 72 | 238 | 8.0 | 16.0 | 0.00 | 0.00 | 0.00 | 47 | 1008.6 |
| 20260507124531 | 71 | 215 | 6.0 | 16.0 | 0.00 | 0.00 | 0.00 | 47 | 1008.6 |
| 20260507123028 | 71 | 201 | 9.0 | 18.0 | 0.00 | 0.00 | 0.00 | 50 | 1008.8 |
| 20260507121522 | 71 | 244 | 7.0 | 15.0 | 0.00 | 0.00 | 0.00 | 49 | 1008.9 |
| 20260507120026 | 70 | 236 | 8.0 | 16.0 | 0.00 | 0.00 | 0.00 | 52 | 1009.1 |
| 20260507114521 | 71 | 249 | 7.0 | 12.0 | 0.00 | 0.00 | 0.00 | 50 | 1009.1 |
| 20260507113019 | 71 | 228 | 7.0 | 13.0 | 0.00 | 0.00 | 0.00 | 50 | 1009.2 |
| 20260507111516 | 70 | 198 | 10.0 | 16.0 | 0.00 | 0.00 | 0.00 | 52 | 1009.3 |
| 20260507110016 | 70 | 204 | 8.0 | 17.0 | 0.00 | 0.00 | 0.00 | 52 | 1009.4 |
| 20260507104512 | 68 | 201 | 5.0 | 14.0 | 0.00 | 0.00 | 0.00 | 58 | 1009.3 |
| 20260507103012 | 69 | 236 | 4.0 | 12.0 | 0.00 | 0.00 | 0.00 | 58 | 1009.4 |
| 20260507101512 | 67 | 206 | 5.0 | 12.0 | 0.00 | 0.00 | 0.00 | 60 | 1009.5 |
| 20260507100007 | 66 | 182 | 5.0 | 13.0 | 0.00 | 0.00 | 0.00 | 62 | 1009.7 |
| 20260507094504 | 67 | 261 | 6.0 | 15.0 | 0.00 | 0.00 | 0.00 | 63 | 1009.7 |
| 20260507093100 | 65 | 178 | 6.0 | 16.0 | 0.00 | 0.00 | 0.00 | 66 | 1009.6 |
| 20260507091557 | 65 | 174 | 6.0 | 13.0 | 0.00 | 0.00 | 0.00 | 69 | 1009.6 |
| 20260507090059 | 64 | 183 | 5.0 | 15.0 | 0.00 | 0.00 | 0.00 | 70 | 1009.6 |
| 20260507084558 | 63 | 207 | 6.0 | 14.0 | 0.00 | 0.00 | 0.00 | 71 | 1009.6 |
| 20260507083052 | 63 | 204 | 7.0 | 13.0 | 0.00 | 0.00 | 0.00 | 72 | 1009.5 |
| 20260507081548 | 63 | 167 | 6.0 | 12.0 | 0.00 | 0.00 | 0.00 | 74 | 1009.4 |
| 20260507080053 | 62 | 194 | 6.0 | 12.0 | 0.00 | 0.00 | 0.00 | 75 | 1009.4 |
| 20260507074541 | 61 | 152 | 4.0 | 12.0 | 0.00 | 0.00 | 0.00 | 76 | 1009.3 |